User: anonymous   Login
Location: Unspecified
(0.0000°N, 0.0000°E)
Time: 16:40:00
(UTC+00:00)
Language:

Transit 2A Rocket - Orbit

View from above orbital plane
View from above orbital plane
View from above satellite
View from above satellite

Ground track
Ground track

The orbit data is extracted from the following two-line orbital elements,

1    47U 60007C   18346.93749804 -.00000053 +00000-0 +13401-4 0  9992
2    47 066.6642 192.2955 0229876 345.7148 013.7523 14.42012262055018
Epoch (UTC): 12 December 2018 22:29:59
Eccentricity: 0.0229876
inclination: 66.6642°
perigee height: 588 km
apogee height: 916 km
right ascension of ascending node: 192.2955°
argument of perigee: 345.7148°
revolutions per day: 14.42012262
mean anomaly at epoch: 13.7523°
orbit number at epoch: 5501

The dashed part of the orbit path shows where the satellite is in the earth's shadow,  

DLR